EZY83FX LEPA-EGCC

Flight info

Callsign EZY83FX
Flight time 2h 5m
Altitude 32000
Route DRAGO DCT PAPOS DCT UMURE N863 GIROM DCT AGN DCT SECHE DCT UVELI DCT CNA DCT TUPAR UN861 ANG DCT AKIKI UN867 AVANT UM184 HEMEL T420 ELVOS
Aircraft A320/M-SDE2E3FGHIJ1RWXYZ/LB1

Departure

Time 2026-05-05 00:31
Airport Palma de Mallorca Airport (LEPA)

Arrival

Time 2026-05-05 02:36
Airport Manchester Airport (EGCC)
Time Latitude Longitude Altitude Speed Heading
2026-05-05 00:05 39.54716 2.73666 37 ft 0 kts 57°
2026-05-05 00:22 39.54710 2.73653 37 ft 2 kts 57°
2026-05-05 00:22 39.54701 2.73634 38 ft 2 kts 57°
2026-05-05 00:22 39.54691 2.73615 38 ft 2 kts 91°
2026-05-05 00:23 39.54693 2.73593 38 ft 2 kts 119°
2026-05-05 00:23 39.54699 2.73582 37 ft 0 kts 152°
2026-05-05 00:25 39.54698 2.73583 38 ft 0 kts 152°
2026-05-05 00:25 39.54696 2.73585 37 ft 1 kts 152°
2026-05-05 00:25 39.54660 2.73621 36 ft 9 kts 127°
2026-05-05 00:25 39.54672 2.73698 38 ft 10 kts 60°
2026-05-05 00:26 39.54705 2.73772 38 ft 9 kts 59°
2026-05-05 00:26 39.54739 2.73843 37 ft 11 kts 56°
2026-05-05 00:26 39.54764 2.73930 36 ft 9 kts 106°
2026-05-05 00:26 39.54735 2.73994 35 ft 9 kts 91°
2026-05-05 00:27 39.54777 2.74102 37 ft 17 kts 58°
2026-05-05 00:27 39.54845 2.74246 37 ft 21 kts 58°
2026-05-05 00:27 39.54924 2.74412 35 ft 22 kts 58°
2026-05-05 00:27 39.55009 2.74591 38 ft 23 kts 58°
2026-05-05 00:28 39.55090 2.74765 37 ft 21 kts 59°
2026-05-05 00:28 39.55170 2.74930 38 ft 22 kts 58°
2026-05-05 00:28 39.55251 2.75103 38 ft 23 kts 58°
2026-05-05 00:28 39.55338 2.75287 38 ft 24 kts 58°
2026-05-05 00:29 39.55426 2.75473 38 ft 25 kts 59°
2026-05-05 00:29 39.55520 2.75671 36 ft 26 kts 59°
2026-05-05 00:29 39.55612 2.75869 37 ft 24 kts 59°
2026-05-05 00:29 39.55655 2.76007 38 ft 13 kts 122°
2026-05-05 00:30 39.55574 2.76084 37 ft 16 kts 152°
2026-05-05 00:30 39.55484 2.76041 37 ft 16 kts 237°
2026-05-05 00:30 39.55420 2.75907 37 ft 23 kts 239°
2026-05-05 00:30 39.55224 2.75495 36 ft 89 kts 238°
2026-05-05 00:31 39.54795 2.74584 38 ft 145 kts 238°
2026-05-05 00:31 39.54212 2.73338 353 ft 165 kts 239°
2026-05-05 00:31 39.53630 2.72055 1071 ft 165 kts 238°
2026-05-05 00:31 39.53030 2.70738 1578 ft 178 kts 238°
2026-05-05 00:32 39.52363 2.69276 1845 ft 199 kts 238°
2026-05-05 00:32 39.51627 2.67654 2310 ft 213 kts 239°
2026-05-05 00:32 39.50912 2.65967 3091 ft 214 kts 240°
2026-05-05 00:32 39.50210 2.64267 3876 ft 214 kts 240°
2026-05-05 00:33 39.49510 2.62561 4630 ft 215 kts 241°
2026-05-05 00:33 39.48802 2.60847 5403 ft 216 kts 241°
2026-05-05 00:33 39.48088 2.59128 6144 ft 217 kts 241°
2026-05-05 00:33 39.47370 2.57402 6876 ft 219 kts 241°
2026-05-05 00:34 39.46642 2.55658 7588 ft 221 kts 241°
2026-05-05 00:34 39.45908 2.53902 8294 ft 223 kts 241°
2026-05-05 00:34 39.45205 2.52087 8845 ft 235 kts 252°
2026-05-05 00:34 39.45198 2.49885 9102 ft 263 kts 285°
2026-05-05 00:35 39.46253 2.47859 9518 ft 286 kts 317°
2026-05-05 00:35 39.47871 2.46279 10202 ft 295 kts 320°
2026-05-05 00:35 39.48994 2.45212 10359 ft 310 kts 320°
2026-05-05 00:35 39.50802 2.43497 10527 ft 334 kts 320°
2026-05-05 00:36 39.52738 2.41658 10659 ft 357 kts 320°
2026-05-05 00:36 39.54777 2.39675 10790 ft 374 kts 316°
2026-05-05 00:36 39.56657 2.37264 11078 ft 385 kts 310°
2026-05-05 00:36 39.58517 2.34745 11650 ft 389 kts 310°
2026-05-05 00:37 39.60387 2.32190 12282 ft 391 kts 309°
2026-05-05 00:37 39.62255 2.29625 12872 ft 393 kts 309°
2026-05-05 00:37 39.64137 2.27039 13437 ft 395 kts 309°
2026-05-05 00:37 39.66030 2.24444 13998 ft 397 kts 309°
2026-05-05 00:38 39.67933 2.21840 14548 ft 399 kts 309°
2026-05-05 00:38 39.69850 2.19219 15075 ft 401 kts 308°
2026-05-05 00:38 39.71776 2.16586 15577 ft 403 kts 308°
2026-05-05 00:38 39.73711 2.13934 16070 ft 405 kts 308°
2026-05-05 00:39 39.75653 2.11269 16556 ft 407 kts 308°
2026-05-05 00:39 39.77602 2.08592 17033 ft 409 kts 307°
2026-05-05 00:39 39.79560 2.05896 17498 ft 410 kts 307°
2026-05-05 00:39 39.81522 2.03189 17956 ft 412 kts 307°
2026-05-05 00:40 39.83491 2.00467 18391 ft 414 kts 307°
2026-05-05 00:40 39.85471 1.97734 18800 ft 416 kts 307°
2026-05-05 00:40 39.87464 1.94988 19185 ft 419 kts 307°
2026-05-05 00:40 39.89470 1.92224 19540 ft 421 kts 307°
2026-05-05 00:41 39.91490 1.89437 19897 ft 424 kts 307°
2026-05-05 00:41 39.93517 1.86633 20254 ft 426 kts 307°
2026-05-05 00:41 39.95550 1.83814 20597 ft 428 kts 307°
2026-05-05 00:41 39.97623 1.80939 20938 ft 430 kts 307°
2026-05-05 00:42 39.99785 1.78270 21235 ft 439 kts 315°
2026-05-05 00:42 40.02376 1.75979 21544 ft 450 kts 324°
2026-05-05 00:42 40.05263 1.74263 21851 ft 460 kts 332°
2026-05-05 00:42 40.08215 1.72774 22154 ft 462 kts 332°
2026-05-05 00:43 40.11215 1.71250 22449 ft 464 kts 332°
2026-05-05 00:43 40.14185 1.69733 22731 ft 465 kts 332°
2026-05-05 00:43 40.17205 1.68180 23005 ft 467 kts 332°
2026-05-05 00:43 40.20270 1.66591 23258 ft 469 kts 332°
2026-05-05 00:44 40.23314 1.65010 23519 ft 471 kts 332°
2026-05-05 00:44 40.26367 1.63429 23783 ft 473 kts 332°
2026-05-05 00:44 40.29438 1.61844 24039 ft 475 kts 332°
2026-05-05 00:44 40.32522 1.60253 24290 ft 477 kts 332°
2026-05-05 00:45 40.35611 1.58657 24583 ft 477 kts 332°
2026-05-05 00:45 40.38695 1.57065 24959 ft 476 kts 332°
2026-05-05 00:45 40.41774 1.55476 25318 ft 475 kts 332°
2026-05-05 00:45 40.44845 1.53890 25675 ft 474 kts 332°
2026-05-05 00:46 40.47910 1.52302 26056 ft 472 kts 332°
2026-05-05 00:46 40.50960 1.50717 26441 ft 471 kts 332°
2026-05-05 00:46 40.54000 1.49136 26800 ft 470 kts 332°
2026-05-05 00:46 40.57042 1.47555 27156 ft 469 kts 332°
2026-05-05 00:47 40.60074 1.45977 27508 ft 468 kts 332°
2026-05-05 00:47 40.63098 1.44401 27859 ft 467 kts 332°
2026-05-05 00:47 40.66113 1.42826 28225 ft 465 kts 332°
2026-05-05 00:47 40.69119 1.41256 28570 ft 464 kts 332°
2026-05-05 00:48 40.72116 1.39689 28912 ft 463 kts 332°
2026-05-05 00:48 40.75110 1.38121 29249 ft 462 kts 331°
2026-05-05 00:48 40.78093 1.36556 29591 ft 461 kts 331°
2026-05-05 00:48 40.81066 1.34994 29955 ft 459 kts 331°
2026-05-05 00:49 40.84032 1.33435 30297 ft 458 kts 331°
2026-05-05 00:49 40.86986 1.31883 30598 ft 457 kts 331°
2026-05-05 00:49 40.89940 1.30333 30922 ft 456 kts 331°
2026-05-05 00:49 40.92889 1.28786 31231 ft 456 kts 331°
2026-05-05 00:50 40.95829 1.27238 31551 ft 454 kts 331°
2026-05-05 00:50 40.98760 1.25692 31860 ft 453 kts 331°
2026-05-05 00:50 41.01688 1.24147 32148 ft 452 kts 331°
2026-05-05 00:50 41.04615 1.22603 32436 ft 452 kts 331°
2026-05-05 00:51 41.07532 1.21063 32712 ft 451 kts 331°
2026-05-05 00:51 41.10447 1.19521 32977 ft 451 kts 331°
2026-05-05 00:51 41.13382 1.18030 33266 ft 454 kts 335°
2026-05-05 00:51 41.16475 1.17037 33533 ft 462 kts 344°
2026-05-05 00:52 41.19699 1.16621 33786 ft 467 kts 349°
2026-05-05 00:52 41.22940 1.16299 34033 ft 467 kts 348°
2026-05-05 00:52 41.26177 1.15967 34293 ft 466 kts 348°
2026-05-05 00:52 41.29405 1.15628 34537 ft 466 kts 348°
2026-05-05 00:53 41.32632 1.15281 34773 ft 466 kts 348°
2026-05-05 00:53 41.35862 1.14933 34955 ft 466 kts 348°
2026-05-05 00:53 41.39100 1.14589 35130 ft 467 kts 349°
2026-05-05 00:53 41.42335 1.14248 35346 ft 466 kts 349°
2026-05-05 00:54 41.45570 1.13908 35559 ft 466 kts 349°
2026-05-05 00:54 41.48801 1.13566 35770 ft 466 kts 349°
2026-05-05 00:54 41.52036 1.13223 35938 ft 467 kts 349°
2026-05-05 00:55 41.58556 1.12526 35993 ft 475 kts 349°
2026-05-05 00:55 41.65202 1.11829 35991 ft 482 kts 349°
2026-05-05 00:56 41.71906 1.11124 35987 ft 483 kts 349°
2026-05-05 00:56 41.78612 1.10415 35988 ft 483 kts 349°
2026-05-05 00:57 41.85318 1.09702 35988 ft 484 kts 349°
2026-05-05 00:57 41.92029 1.08981 35988 ft 484 kts 349°
2026-05-05 00:58 41.98749 1.08262 35991 ft 484 kts 349°
2026-05-05 00:58 42.05467 1.07543 35985 ft 485 kts 350°
2026-05-05 00:59 42.12202 1.06817 35979 ft 486 kts 350°
2026-05-05 00:59 42.18958 1.06085 35972 ft 487 kts 350°
2026-05-05 01:00 42.25716 1.05356 35972 ft 488 kts 351°
2026-05-05 01:00 42.32487 1.04628 35973 ft 488 kts 351°
2026-05-05 01:01 42.39258 1.03896 35975 ft 488 kts 351°
2026-05-05 01:01 42.46036 1.03169 35978 ft 488 kts 351°
2026-05-05 01:02 42.52815 1.02440 35978 ft 489 kts 351°
2026-05-05 01:02 42.59602 1.01702 35983 ft 489 kts 351°
2026-05-05 01:03 42.66385 1.00947 35986 ft 489 kts 351°
2026-05-05 01:03 42.73173 1.00197 35986 ft 490 kts 351°
2026-05-05 01:04 42.79969 0.99452 35986 ft 490 kts 351°
2026-05-05 01:04 42.90161 0.98340 35987 ft 490 kts 351°
2026-05-05 01:05 42.96962 0.97594 35992 ft 490 kts 351°
2026-05-05 01:05 43.03761 0.96833 35996 ft 490 kts 351°
2026-05-05 01:06 43.10563 0.96075 35993 ft 491 kts 351°
2026-05-05 01:06 43.17377 0.95310 35999 ft 491 kts 352°
2026-05-05 01:07 43.24187 0.94552 35991 ft 491 kts 352°
2026-05-05 01:07 43.31002 0.93800 35988 ft 492 kts 352°
2026-05-05 01:08 43.37825 0.93042 35989 ft 492 kts 352°
2026-05-05 01:08 43.44654 0.92281 35998 ft 493 kts 352°
2026-05-05 01:09 43.51495 0.91514 35998 ft 493 kts 352°
2026-05-05 01:09 43.58330 0.90735 35998 ft 493 kts 352°
2026-05-05 01:10 43.65168 0.89967 35994 ft 493 kts 352°
2026-05-05 01:10 43.72008 0.89204 35998 ft 493 kts 352°
2026-05-05 01:11 43.78855 0.88423 35992 ft 494 kts 352°
2026-05-05 01:11 43.85708 0.87604 35991 ft 494 kts 349°
2026-05-05 01:12 43.92280 0.85043 35996 ft 484 kts 331°
2026-05-05 01:12 43.97345 0.81768 35990 ft 484 kts 331°
2026-05-05 01:13 44.04442 0.77185 35973 ft 485 kts 331°
2026-05-05 01:13 44.09577 0.73874 35965 ft 486 kts 332°
2026-05-05 01:14 44.15708 0.69906 35962 ft 486 kts 331°
2026-05-05 01:14 44.21850 0.65912 35962 ft 487 kts 331°
2026-05-05 01:15 44.28001 0.61903 35963 ft 488 kts 331°
2026-05-05 01:15 44.34151 0.57894 35965 ft 488 kts 331°
2026-05-05 01:16 44.40303 0.53865 35968 ft 488 kts 331°
2026-05-05 01:16 44.46453 0.49818 35967 ft 488 kts 331°
2026-05-05 01:17 44.52596 0.45746 35971 ft 488 kts 331°
2026-05-05 01:17 44.58737 0.41659 35973 ft 489 kts 331°
2026-05-05 01:18 44.64888 0.37559 35972 ft 490 kts 331°
2026-05-05 01:18 44.71040 0.33458 35971 ft 489 kts 331°
2026-05-05 01:19 44.77190 0.29349 35970 ft 489 kts 331°
2026-05-05 01:19 44.83338 0.25222 35968 ft 490 kts 331°
2026-05-05 01:20 44.89496 0.21080 35971 ft 490 kts 331°
2026-05-05 01:20 44.95657 0.16931 35976 ft 491 kts 331°
2026-05-05 01:21 45.01813 0.12773 35976 ft 491 kts 331°
2026-05-05 01:21 45.07974 0.08604 35972 ft 491 kts 331°
2026-05-05 01:22 45.14138 0.04424 35971 ft 491 kts 331°
2026-05-05 01:22 45.20302 0.00220 35968 ft 492 kts 331°
2026-05-05 01:23 45.26469 -0.03988 35976 ft 491 kts 331°
2026-05-05 01:23 45.32627 -0.08188 35974 ft 490 kts 331°
2026-05-05 01:24 45.38767 -0.12393 35971 ft 490 kts 331°
2026-05-05 01:24 45.44902 -0.16618 35967 ft 490 kts 331°
2026-05-05 01:25 45.51033 -0.20844 35968 ft 490 kts 331°
2026-05-05 01:25 45.57166 -0.25081 35967 ft 490 kts 331°
2026-05-05 01:26 45.63295 -0.29322 35965 ft 490 kts 331°
2026-05-05 01:26 45.69663 -0.32828 35960 ft 493 kts 340°
2026-05-05 01:27 45.76207 -0.35767 35958 ft 493 kts 340°
2026-05-05 01:27 45.82748 -0.38730 35958 ft 493 kts 340°
2026-05-05 01:28 45.89292 -0.41706 35954 ft 493 kts 340°
2026-05-05 01:28 45.95844 -0.44680 35958 ft 493 kts 340°
2026-05-05 01:29 46.02390 -0.47654 35964 ft 494 kts 341°
2026-05-05 01:29 46.08939 -0.50638 35963 ft 494 kts 341°
2026-05-05 01:30 46.15485 -0.53637 35960 ft 494 kts 341°
2026-05-05 01:30 46.22032 -0.56647 35959 ft 494 kts 341°
2026-05-05 01:31 46.28575 -0.59651 35960 ft 494 kts 341°
2026-05-05 01:31 46.35123 -0.62674 35960 ft 494 kts 341°
2026-05-05 01:32 46.41719 -0.65694 35960 ft 494 kts 344°
2026-05-05 01:32 46.48476 -0.67224 35960 ft 496 kts 353°
2026-05-05 01:33 46.55378 -0.68366 35961 ft 496 kts 352°
2026-05-05 01:33 46.62238 -0.69518 35962 ft 497 kts 352°
2026-05-05 01:34 46.69104 -0.70678 35964 ft 497 kts 352°
2026-05-05 01:34 46.75968 -0.71838 35964 ft 496 kts 352°
2026-05-05 01:35 46.82824 -0.72991 35963 ft 496 kts 352°
2026-05-05 01:35 46.89683 -0.74147 35961 ft 496 kts 352°
2026-05-05 01:36 46.96531 -0.75324 35961 ft 496 kts 352°
2026-05-05 01:36 47.03384 -0.76508 35960 ft 496 kts 352°
2026-05-05 01:37 47.10235 -0.77681 35959 ft 496 kts 352°
2026-05-05 01:37 47.17088 -0.78849 35962 ft 496 kts 352°
2026-05-05 01:38 47.23941 -0.80023 35961 ft 495 kts 352°
2026-05-05 01:38 47.30788 -0.81207 35960 ft 495 kts 352°
2026-05-05 01:39 47.37631 -0.82395 35960 ft 495 kts 352°
2026-05-05 01:39 47.44479 -0.83587 35962 ft 495 kts 352°
2026-05-05 01:40 47.51323 -0.84774 35959 ft 495 kts 352°
2026-05-05 01:40 47.58143 -0.86147 35956 ft 494 kts 349°
2026-05-05 01:41 47.64908 -0.87997 35951 ft 494 kts 348°
2026-05-05 01:41 47.71656 -0.89947 35950 ft 495 kts 348°
2026-05-05 01:42 47.78429 -0.91795 35949 ft 495 kts 349°
2026-05-05 01:42 47.85205 -0.93570 35948 ft 494 kts 349°
2026-05-05 01:43 47.91983 -0.95354 35944 ft 494 kts 349°
2026-05-05 01:43 47.98751 -0.97167 35940 ft 494 kts 349°
2026-05-05 01:44 48.05521 -0.98988 35937 ft 494 kts 349°
2026-05-05 01:44 48.12285 -1.00821 35938 ft 494 kts 349°
2026-05-05 01:45 48.19049 -1.02658 35939 ft 494 kts 349°
2026-05-05 01:45 48.25810 -1.04491 35941 ft 494 kts 349°
2026-05-05 01:46 48.32565 -1.06326 35940 ft 493 kts 349°
2026-05-05 01:46 48.39317 -1.08164 35940 ft 493 kts 349°
2026-05-05 01:47 48.46058 -1.10005 35943 ft 492 kts 349°
2026-05-05 01:47 48.52799 -1.11858 35942 ft 492 kts 349°
2026-05-05 01:48 48.59535 -1.13710 35944 ft 492 kts 349°
2026-05-05 01:48 48.66268 -1.15564 35945 ft 492 kts 349°
2026-05-05 01:49 48.73002 -1.17416 35947 ft 492 kts 349°
2026-05-05 01:49 48.79735 -1.19275 35953 ft 492 kts 349°
2026-05-05 01:50 48.86472 -1.21160 35959 ft 492 kts 349°
2026-05-05 01:50 48.93204 -1.23039 35961 ft 492 kts 349°
2026-05-05 01:51 48.99933 -1.24914 35965 ft 492 kts 349°
2026-05-05 01:51 49.05532 -1.26472 35970 ft 492 kts 349°
2026-05-05 01:52 49.12270 -1.28362 35975 ft 492 kts 348°
2026-05-05 01:52 49.19046 -1.30275 35982 ft 492 kts 348°
2026-05-05 01:53 49.25776 -1.32169 35988 ft 491 kts 348°
2026-05-05 01:53 49.32499 -1.34067 35985 ft 491 kts 349°
2026-05-05 01:54 49.39228 -1.35973 35995 ft 492 kts 348°
2026-05-05 01:54 49.45947 -1.37890 35998 ft 491 kts 348°
2026-05-05 01:55 49.52665 -1.39819 36006 ft 491 kts 348°
2026-05-05 01:55 49.59417 -1.41437 36011 ft 492 kts 357°
2026-05-05 01:56 49.66247 -1.41034 36013 ft 491 kts
2026-05-05 01:56 49.73069 -1.40430 36011 ft 491 kts
2026-05-05 01:57 49.79887 -1.39839 36008 ft 491 kts
2026-05-05 01:57 49.86709 -1.39242 36007 ft 491 kts
2026-05-05 01:58 49.93524 -1.38633 36009 ft 490 kts
2026-05-05 01:58 50.00338 -1.37951 36004 ft 491 kts
2026-05-05 01:59 50.07074 -1.36291 36012 ft 490 kts
2026-05-05 01:59 50.13793 -1.34602 36015 ft 489 kts
2026-05-05 02:00 50.20510 -1.32932 36015 ft 488 kts
2026-05-05 02:00 50.27216 -1.31262 36012 ft 488 kts
2026-05-05 02:01 50.33923 -1.29584 36011 ft 488 kts
2026-05-05 02:01 50.40626 -1.27914 36013 ft 487 kts
2026-05-05 02:02 50.47311 -1.26136 36019 ft 487 kts 14°
2026-05-05 02:02 50.53550 -1.22194 36021 ft 484 kts 32°
2026-05-05 02:03 50.59242 -1.16568 36023 ft 483 kts 33°
2026-05-05 02:03 50.64920 -1.10936 36023 ft 482 kts 33°
2026-05-05 02:04 50.70587 -1.05288 36021 ft 481 kts 33°
2026-05-05 02:04 50.76232 -0.99625 36024 ft 480 kts 33°
2026-05-05 02:05 50.81942 -0.94177 36025 ft 480 kts 25°
2026-05-05 02:05 50.88233 -0.90634 36027 ft 480 kts 18°
2026-05-05 02:06 50.94584 -0.87349 36031 ft 480 kts 19°
2026-05-05 02:06 51.00924 -0.84057 36032 ft 479 kts 18°
2026-05-05 02:07 51.07253 -0.80775 36032 ft 478 kts 18°
2026-05-05 02:07 51.13568 -0.77481 36045 ft 477 kts 19°
2026-05-05 02:08 51.19873 -0.74182 36037 ft 477 kts 19°
2026-05-05 02:08 51.26172 -0.70887 36036 ft 476 kts 18°
2026-05-05 02:09 51.32455 -0.67583 36035 ft 475 kts 19°
2026-05-05 02:09 51.38735 -0.64263 36037 ft 475 kts 19°
2026-05-05 02:10 51.45010 -0.60937 36046 ft 475 kts 19°
2026-05-05 02:10 51.51283 -0.57607 36041 ft 474 kts 19°
2026-05-05 02:11 51.57539 -0.54280 36038 ft 473 kts 19°
2026-05-05 02:11 51.63793 -0.50958 36036 ft 473 kts 19°
2026-05-05 02:12 51.73173 -0.45960 36033 ft 473 kts 16°
2026-05-05 02:12 51.76396 -0.44941 36034 ft 473 kts
2026-05-05 02:13 51.79546 -0.44844 36031 ft 473 kts 355°
2026-05-05 02:13 51.85890 -0.47359 36026 ft 471 kts 335°
2026-05-05 02:14 51.91566 -0.52633 36020 ft 471 kts 328°
2026-05-05 02:14 51.97177 -0.58122 36024 ft 471 kts 328°
2026-05-05 02:15 52.02791 -0.63612 36031 ft 471 kts 329°
2026-05-05 02:15 52.08370 -0.69081 35642 ft 464 kts 329°
2026-05-05 02:15 52.11133 -0.71800 34891 ft 464 kts 329°
2026-05-05 02:16 52.13899 -0.74525 34089 ft 465 kts 329°
2026-05-05 02:16 52.16670 -0.77261 33301 ft 466 kts 329°
2026-05-05 02:16 52.19445 -0.80003 32533 ft 466 kts 329°
2026-05-05 02:16 52.22210 -0.82735 31730 ft 465 kts 329°
2026-05-05 02:17 52.24983 -0.85475 30855 ft 466 kts 329°
2026-05-05 02:17 52.27749 -0.88217 29960 ft 466 kts 329°
2026-05-05 02:17 52.30523 -0.90973 29049 ft 466 kts 328°
2026-05-05 02:17 52.33295 -0.93734 28062 ft 467 kts 328°
2026-05-05 02:18 52.36078 -0.96512 26976 ft 470 kts 328°
2026-05-05 02:18 52.38860 -0.99291 26094 ft 469 kts 327°
2026-05-05 02:18 52.41653 -1.02087 25433 ft 472 kts 327°
2026-05-05 02:18 52.44461 -1.04905 24807 ft 476 kts 327°
2026-05-05 02:19 52.47292 -1.07749 24179 ft 478 kts 327°
2026-05-05 02:19 52.50117 -1.10591 23548 ft 475 kts 327°
2026-05-05 02:19 52.52927 -1.13416 22922 ft 471 kts 327°
2026-05-05 02:19 52.55710 -1.16215 22295 ft 467 kts 327°
2026-05-05 02:20 52.58464 -1.18990 21668 ft 462 kts 327°
2026-05-05 02:20 52.61185 -1.21739 21043 ft 457 kts 327°
2026-05-05 02:20 52.63879 -1.24467 20418 ft 452 kts 327°
2026-05-05 02:20 52.66546 -1.27173 20089 ft 450 kts 327°
2026-05-05 02:21 52.69205 -1.29871 19999 ft 448 kts 327°
2026-05-05 02:21 52.71895 -1.32600 20016 ft 448 kts 327°
2026-05-05 02:21 52.74516 -1.35256 20033 ft 448 kts 327°
2026-05-05 02:21 52.77170 -1.37952 19980 ft 447 kts 327°
2026-05-05 02:22 52.79816 -1.40650 19535 ft 446 kts 327°
2026-05-05 02:22 52.82472 -1.43370 18998 ft 441 kts 327°
2026-05-05 02:22 52.85069 -1.46038 18483 ft 437 kts 327°
2026-05-05 02:22 52.87641 -1.48687 17948 ft 433 kts 327°
2026-05-05 02:23 52.90189 -1.51310 17430 ft 430 kts 327°
2026-05-05 02:23 52.92686 -1.53878 16901 ft 424 kts 327°
2026-05-05 02:23 52.95201 -1.56461 16368 ft 416 kts 327°
2026-05-05 02:23 52.97637 -1.58969 15846 ft 409 kts 327°
2026-05-05 02:24 53.00003 -1.61409 15325 ft 402 kts 327°
2026-05-05 02:24 53.02387 -1.63874 14792 ft 396 kts 326°
2026-05-05 02:24 53.04683 -1.66332 14271 ft 389 kts 322°
2026-05-05 02:24 53.06632 -1.69376 13745 ft 382 kts 309°
2026-05-05 02:25 53.08350 -1.72721 13220 ft 378 kts 309°
2026-05-05 02:25 53.10046 -1.76033 12683 ft 374 kts 309°
2026-05-05 02:25 53.11726 -1.79297 12160 ft 369 kts 309°
2026-05-05 02:25 53.13392 -1.82517 11625 ft 364 kts 309°
2026-05-05 02:26 53.15036 -1.85694 11102 ft 360 kts 309°
2026-05-05 02:26 53.16654 -1.88835 10640 ft 354 kts 309°
2026-05-05 02:26 53.18235 -1.91919 10192 ft 347 kts 309°
2026-05-05 02:26 53.19790 -1.94961 9749 ft 341 kts 309°
2026-05-05 02:27 53.21336 -1.97920 9292 ft 336 kts 314°
2026-05-05 02:27 53.23248 -2.00091 8833 ft 334 kts 337°
2026-05-05 02:27 53.25498 -2.00848 8394 ft 331 kts 360°
2026-05-05 02:27 53.27758 -2.00204 7942 ft 329 kts 14°
2026-05-05 02:28 53.29943 -1.99169 7492 ft 325 kts 15°
2026-05-05 02:28 53.32084 -1.98129 7032 ft 313 kts 15°
2026-05-05 02:28 53.34120 -1.97134 6583 ft 298 kts 15°
2026-05-05 02:28 53.36067 -1.96179 6130 ft 285 kts 15°
2026-05-05 02:29 53.37315 -1.95565 5832 ft 278 kts 15°
2026-05-05 02:29 53.39144 -1.94660 5383 ft 270 kts 15°
2026-05-05 02:29 53.40912 -1.93789 4932 ft 260 kts 15°
2026-05-05 02:29 53.42622 -1.92949 4480 ft 252 kts 15°
2026-05-05 02:30 53.44279 -1.92140 4027 ft 245 kts 15°
2026-05-05 02:30 53.45893 -1.91355 3582 ft 237 kts 15°
2026-05-05 02:30 53.47427 -1.90701 3493 ft 221 kts
2026-05-05 02:30 53.48903 -1.91190 3503 ft 218 kts 330°
2026-05-05 02:31 53.49964 -1.92974 3500 ft 221 kts 297°
2026-05-05 02:31 53.50248 -1.95466 3494 ft 218 kts 263°
2026-05-05 02:31 53.49670 -1.97726 3491 ft 210 kts 233°
2026-05-05 02:31 53.48764 -1.99614 3492 ft 206 kts 232°
2026-05-05 02:32 53.47869 -2.01476 3498 ft 202 kts 232°
2026-05-05 02:32 53.47027 -2.03234 3503 ft 185 kts 232°
2026-05-05 02:32 53.46240 -2.04880 3346 ft 178 kts 232°
2026-05-05 02:32 53.45475 -2.06480 3141 ft 174 kts 233°
2026-05-05 02:33 53.44718 -2.08059 2923 ft 173 kts 233°
2026-05-05 02:33 53.43970 -2.09623 2696 ft 172 kts 232°
2026-05-05 02:33 53.43222 -2.11182 2473 ft 171 kts 231°
2026-05-05 02:33 53.42479 -2.12732 2245 ft 170 kts 231°
2026-05-05 02:34 53.41739 -2.14273 2029 ft 169 kts 230°
2026-05-05 02:34 53.41005 -2.15804 1796 ft 168 kts 230°
2026-05-05 02:34 53.40284 -2.17303 1609 ft 158 kts 230°
2026-05-05 02:34 53.39618 -2.18687 1377 ft 147 kts 231°
2026-05-05 02:35 53.38991 -2.19992 1171 ft 141 kts 230°
2026-05-05 02:35 53.38382 -2.21265 999 ft 139 kts 230°
2026-05-05 02:35 53.37765 -2.22539 819 ft 138 kts 230°
2026-05-05 02:35 53.37167 -2.23771 635 ft 138 kts 230°
2026-05-05 02:36 53.36560 -2.25042 453 ft 138 kts 230°
2026-05-05 02:36 53.35962 -2.26286 282 ft 135 kts 230°
2026-05-05 02:36 53.35451 -2.27340 247 ft 94 kts 230°
2026-05-05 02:36 53.35150 -2.27966 234 ft 44 kts 231°
2026-05-05 02:37 53.35009 -2.28266 232 ft 31 kts 238°
2026-05-05 02:37 53.34946 -2.28603 229 ft 27 kts 261°
2026-05-05 02:37 53.34979 -2.28755 227 ft 15 kts 338°
2026-05-05 02:37 53.35063 -2.28647 229 ft 16 kts 51°
2026-05-05 02:38 53.35137 -2.28502 227 ft 18 kts 49°
2026-05-05 02:38 53.35213 -2.28345 233 ft 16 kts 54°
2026-05-05 02:38 53.35293 -2.28221 232 ft 16 kts 29°
2026-05-05 02:38 53.35392 -2.28166 237 ft 14 kts
2026-05-05 02:39 53.35504 -2.28114 234 ft 19 kts 30°
2026-05-05 02:39 53.35590 -2.27966 238 ft 16 kts 50°
2026-05-05 02:39 53.35677 -2.27885 243 ft 13 kts
2026-05-05 02:39 53.35755 -2.27873 248 ft 11 kts
2026-05-05 02:40 53.35828 -2.27861 252 ft 10 kts
2026-05-05 02:40 53.35915 -2.27848 255 ft 16 kts
2026-05-05 02:40 53.36016 -2.27936 255 ft 17 kts 318°
2026-05-05 02:40 53.36110 -2.28075 255 ft 19 kts 318°
2026-05-05 02:41 53.36206 -2.28237 255 ft 21 kts 314°
2026-05-05 02:41 53.36300 -2.28396 255 ft 15 kts 315°
2026-05-05 02:41 53.36393 -2.28481 255 ft 16 kts 350°
2026-05-05 02:41 53.36478 -2.28587 255 ft 16 kts 315°
2026-05-05 02:42 53.36559 -2.28722 255 ft 16 kts 314°
2026-05-05 02:42 53.36624 -2.28781 255 ft 10 kts 18°
2026-05-05 02:42 53.36653 -2.28697 255 ft 8 kts 51°
2026-05-05 02:42 53.36688 -2.28639 255 ft 6 kts 44°
2026-05-05 02:43 53.36680 -2.28596 255 ft 3 kts 126°
2026-05-05 02:43 53.36667 -2.28571 255 ft 2 kts 136°
2026-05-05 02:43 53.36657 -2.28556 255 ft 1 kts 135°
2026-05-05 02:43 53.36653 -2.28548 255 ft 1 kts 135°
2026-05-05 02:44 53.36652 -2.28546 255 ft 0 kts 135°